Location: Moscow Pond
(43.6842°N, 73.2366°W)
Time: 21:47:36
(UTC+00:00)

NOSS 2-1 (C) - Pass Details

Date: 08 November 2025
Orbit: 375 x 1687 km, 63.3° (Epoch: 10 December)

Event Time Altitude Azimuth Distance (km) Brightness Sun altitude
Exits shadow 09:32:07 27° 27° (NNE) 852 4.5 -23.0°
Drops below altitude 10° 09:33:36 10° 33° (NNE) 1,455 5.8 -22.8°
Sets 09:35:29 0° 35° (NE) 2,268 6.9 -22.4°
